Date String (YYYY-MM-DD hh:mm:ss) UTC,Instrument flags,absolute air pressure of the measurement (hPa),sample flow rate (lpm),inlet stack bypass flow (lpm),air temperature of the measurement (°C),ambient temperature measured by the external sensor (°C),aerosol sample conditioner tube jacket temperature (°C),OPC LED temperature (°C),internal box temperature (°C),relative humidity of the measurement (%),span deviation,mass concentration of particles derived from Lorenz-Mie calculation of OPC scattering (μg/m³),mass concentration of particles derived from Lorenz-Mie calculation of OPC scattering (μg/m³),mass concentration of particles derived from Lorenz-Mie calculation of OPC scattering (μg/m³)
DateTimeUTC,F1_M11,P_M11,Q1_M11,Q2_M11,T1_M11,T2_M11,T3_M11,T4_M11,T5_M11,U1_M11,ZSPAN_M11,X0_M11,X2_M11,X1_M11
2024-05-23 22:00:00,SystemResetWarning,0816.5,5.00,000.00,029.7,029.5,000.0,037.8,031.6,011.2,0000.0,0013.76,0004.84,0003.41
2024-05-23 22:01:00,SystemResetWarning,0816.5,4.99,000.00,029.8,029.3,000.0,037.9,031.5,010.9,0000.0,0013.91,0004.88,0003.41
2024-05-23 22:02:00,SystemResetWarning,0816.4,5.00,000.00,029.6,027.3,000.0,038.0,030.5,011.2,0000.0,0013.81,0004.90,0003.41
2024-05-23 22:03:00,SystemResetWarning,0816.4,5.01,000.00,029.3,026.7,000.0,038.0,030.1,011.6,0000.0,0013.76,0004.84,0003.41
2024-05-23 22:04:00,SystemResetWarning,0816.6,5.01,000.00,029.2,027.0,000.0,037.9,030.3,011.4,0000.0,0014.16,0004.85,0003.39
2024-05-23 22:05:00,SystemResetWarning,0816.6,4.99,000.00,029.2,027.4,000.0,037.8,030.6,011.5,0000.0,0014.24,0004.82,0003.38
2024-05-23 22:06:00,SystemResetWarning,0816.6,5.00,000.00,029.3,027.7,000.0,037.8,030.8,011.2,0000.0,0013.62,0004.76,0003.37
2024-05-23 22:07:00,SystemResetWarning,0816.8,4.99,000.00,029.3,028.0,000.0,037.8,030.9,011.0,0000.0,0013.93,0004.78,0003.38
2024-05-23 22:08:00,SystemResetWarning,0816.8,4.99,000.00,029.4,028.3,000.0,037.8,031.1,011.3,0000.0,0013.54,0004.76,0003.39
2024-05-23 22:09:00,SystemResetWarning,0816.8,5.00,000.00,029.4,028.6,000.0,037.8,031.2,011.0,0000.0,0013.67,0004.78,0003.40
2024-05-23 22:10:00,SystemResetWarning,0816.9,4.99,000.00,029.5,028.8,000.0,037.8,031.3,011.5,0000.0,0013.70,0004.85,0003.41
2024-05-23 22:11:00,SystemResetWarning,0816.8,4.99,000.00,029.5,029.0,000.0,037.8,031.4,011.5,0000.0,0013.07,0004.84,0003.41
2024-05-23 22:12:00,SystemResetWarning,0816.9,5.00,000.00,029.6,029.1,000.0,037.8,031.4,011.0,0000.0,0012.84,0004.89,0003.42
2024-05-23 22:13:00,SystemResetWarning,0816.9,5.01,000.00,029.7,029.2,000.0,037.9,031.5,011.3,0000.0,0013.02,0004.89,0003.41
2024-05-23 22:14:00,SystemResetWarning,0816.9,5.00,000.00,029.7,029.4,000.0,037.9,031.6,011.2,0000.0,0014.30,0004.90,0003.41
2024-05-23 22:15:00,SystemResetWarning,0816.9,5.00,000.00,029.8,029.5,000.0,037.9,031.7,011.1,0000.0,0014.90,0004.89,0003.41
2024-05-23 22:16:00,SystemResetWarning,0816.9,5.00,000.00,029.9,029.6,000.0,038.0,031.7,011.5,0000.0,0014.51,0004.88,0003.41
2024-05-23 22:17:00,SystemResetWarning,0816.9,4.99,000.00,029.8,028.5,000.0,038.1,031.1,011.5,0000.0,0015.11,0004.89,0003.41
2024-05-23 22:18:00,SystemResetWarning,0816.8,5.01,000.00,029.5,026.6,000.0,038.1,030.3,011.9,0000.0,0016.39,0004.87,0003.41
2024-05-23 22:19:00,SystemResetWarning,0816.9,5.01,000.00,029.3,026.8,000.0,038.0,030.3,011.8,0000.0,0017.17,0004.92,0003.40
2024-05-23 22:20:00,SystemResetWarning,0816.9,4.99,000.00,029.3,027.2,000.0,037.9,030.5,011.9,0000.0,0016.98,0004.86,0003.40
2024-05-23 22:21:00,SystemResetWarning,0816.9,5.00,000.00,029.3,027.6,000.0,037.9,030.7,012.2,0000.0,0016.59,0004.82,0003.38
2024-05-23 22:22:00,SystemResetWarning,0816.9,5.00,000.00,029.3,027.9,000.0,037.8,030.9,012.4,0000.0,0016.37,0004.82,0003.38
2024-05-23 22:23:00,SystemResetWarning,0816.9,4.99,000.00,029.4,028.2,000.0,037.8,031.0,012.5,0000.0,0017.56,0004.75,0003.38
2024-05-23 22:24:00,SystemResetWarning,0816.9,5.00,000.00,029.4,028.5,000.0,037.8,031.2,012.5,0000.0,0017.64,0004.71,0003.36
2024-05-23 22:25:00,SystemResetWarning,0816.9,5.00,000.00,029.5,028.7,000.0,037.8,031.3,012.3,0000.0,0016.84,0004.70,0003.35
2024-05-23 22:26:00,SystemResetWarning,0816.9,4.99,000.00,029.6,028.9,000.0,037.8,031.4,012.2,0000.0,0016.35,0004.70,0003.34
2024-05-23 22:27:00,SystemResetWarning,0816.9,5.00,000.00,029.6,029.1,000.0,037.9,031.4,012.0,0000.0,0017.93,0004.71,0003.34
2024-05-23 22:28:00,SystemResetWarning,0817.0,5.00,000.00,029.7,029.2,000.0,037.9,031.5,012.0,0000.0,0018.52,0004.81,0003.34
2024-05-23 22:29:00,SystemResetWarning,0816.9,5.00,000.00,029.8,029.3,000.0,037.9,031.6,011.9,0000.0,0018.62,0004.80,0003.34
2024-05-23 22:30:00,SystemResetWarning,0817.0,4.99,000.00,029.8,029.4,000.0,038.0,031.7,011.8,0000.0,0018.24,0004.73,0003.34
2024-05-23 22:31:00,SystemResetWarning,0817.1,4.99,000.00,029.9,029.5,000.0,038.0,031.7,011.6,0000.0,0018.63,0004.80,0003.34
2024-05-23 22:32:00,SystemResetWarning,0817.1,5.00,000.00,029.9,029.3,000.0,038.1,031.6,012.2,0000.0,0018.97,0004.83,0003.34
2024-05-23 22:33:00,SystemResetWarning,0817.0,4.99,000.00,029.6,027.0,000.0,038.1,030.4,012.4,0000.0,0019.55,0004.87,0003.32
2024-05-23 22:34:00,SystemResetWarning,0816.9,5.00,000.00,029.1,025.3,000.0,038.1,029.5,012.4,0000.0,0018.52,0004.86,0003.31
2024-05-23 22:35:00,SystemResetWarning,0817.1,5.02,000.00,028.9,025.7,000.0,038.0,029.6,012.9,0000.0,0018.63,0004.88,0003.31
2024-05-23 22:36:00,SystemResetWarning,0816.9,4.98,000.00,028.9,026.2,000.0,037.8,030.0,013.4,0000.0,0018.27,0004.89,0003.31
2024-05-23 22:37:00,SystemResetWarning,0816.9,4.99,000.00,028.9,026.7,000.0,037.7,030.3,013.2,0000.0,0018.01,0004.91,0003.31
2024-05-23 22:38:00,SystemResetWarning,0816.9,5.01,000.00,029.0,027.2,000.0,037.7,030.5,012.8,0000.0,0016.68,0004.91,0003.31
2024-05-23 22:39:00,SystemResetWarning,0816.9,5.01,000.00,029.0,027.5,000.0,037.6,030.6,012.9,0000.0,0015.47,0004.85,0003.31
2024-05-23 22:40:00,SystemResetWarning,0817.1,4.99,000.00,029.1,027.9,000.0,037.6,030.7,013.0,0000.0,0014.62,0004.77,0003.29
2024-05-23 22:41:00,SystemResetWarning,0817.0,5.00,000.00,029.1,028.1,000.0,037.6,030.9,013.3,0000.0,0015.75,0004.77,0003.28
2024-05-23 22:42:00,SystemResetWarning,0816.9,5.00,000.00,029.2,028.4,000.0,037.6,031.0,013.5,0000.0,0015.73,0004.74,0003.26
2024-05-23 22:43:00,SystemResetWarning,0816.9,5.00,000.00,029.3,028.6,000.0,037.6,031.1,013.4,0000.0,0015.85,0004.72,0003.25
2024-05-23 22:44:00,SystemResetWarning,0816.8,5.01,000.00,029.3,028.8,000.0,037.6,031.2,013.2,0000.0,0017.17,0004.72,0003.25
2024-05-23 22:45:00,SystemResetWarning,0816.8,5.01,000.00,029.4,028.9,000.0,037.7,031.2,013.3,0000.0,0018.72,0004.71,0003.24
2024-05-23 22:46:00,SystemResetWarning,0816.9,5.00,000.00,029.5,029.0,000.0,037.7,031.3,013.0,0000.0,0019.59,0004.72,0003.23
2024-05-23 22:47:00,SystemResetWarning,0816.9,4.99,000.00,029.5,029.1,000.0,037.7,031.4,013.2,0000.0,0019.19,0004.71,0003.24
2024-05-23 22:48:00,SystemResetWarning,0816.9,4.99,000.00,029.6,029.2,000.0,037.8,031.4,013.1,0000.0,0019.68,0004.71,0003.22
2024-05-23 22:49:00,SystemResetWarning,0817.0,4.99,000.00,029.7,029.3,000.0,037.8,031.5,013.1,0000.0,0019.77,0004.67,0003.21
2024-05-23 22:50:00,SystemResetWarning,0817.1,5.00,000.00,029.7,029.4,000.0,037.9,031.6,013.2,0000.0,0019.83,0004.66,0003.19
2024-05-23 22:51:00,SystemResetWarning,0817.1,5.01,000.00,029.8,029.4,000.0,037.9,031.6,013.2,0000.0,0019.55,0004.62,0003.17
2024-05-23 22:52:00,SystemResetWarning,0817.1,5.01,000.00,029.8,029.5,000.0,037.9,031.7,013.3,0000.0,0018.03,0004.60,0003.16
2024-05-23 22:53:00,SystemResetWarning,0817.0,4.99,000.00,029.9,029.6,000.0,038.0,031.7,013.4,0000.0,0017.44,0004.56,0003.16
2024-05-23 22:54:00,SystemResetWarning,0817.1,4.99,000.00,029.9,029.6,000.0,038.0,031.8,013.3,0000.0,0017.72,0004.54,0003.16
2024-05-23 22:55:00,SystemResetWarning,0817.0,4.99,000.00,030.0,029.7,000.0,038.1,031.9,013.4,0000.0,0016.98,0004.50,0003.15
2024-05-23 22:56:00,SystemResetWarning,0817.1,4.99,000.00,030.0,029.4,000.0,038.1,031.7,013.2,0000.0,0015.75,0004.48,0003.14
2024-05-23 22:57:00,SystemResetWarning,0817.0,5.00,000.00,029.8,027.2,000.0,038.2,030.6,013.7,0000.0,0015.37,0004.46,0003.12
2024-05-23 22:58:00,SystemResetWarning,0816.9,5.01,000.00,029.4,026.5,000.0,038.2,030.2,013.6,0000.0,0015.52,0004.43,0003.11
2024-05-23 22:59:00,SystemResetWarning,0816.8,5.02,000.00,029.3,026.9,000.0,038.1,030.4,013.1,0000.0,0015.92,0004.38,0003.11
